ヴィルト第1彗星

63P/Wild 1 (2026)

English version
Home page
Updated on August 11, 2025

---------------------------------------------------------------------

・ プロフィール

・ 軌道要素

Epoch 2026 July 19.0 TT = JDT 2461240.5
T 2026 July 6.13558 TT                                  MPC
q   1.9749545            (2000.0)            P               Q
n   0.07331849     Peri.  168.73886     -0.97272193     -0.23159527
a   5.6536255      Node   357.73771     +0.17806946     -0.70884662
e   0.6506747      Incl.   19.62008     +0.14867187     -0.66625829
P  13.4
From 1869 observations 1960 Apr. 16-2013 July 2, mean residual 0".5.
     Nongravitational parameters A1 = +0.35, A2 = -0.1097.

・ 星図

・ 光度変化

        m1 = 2.0 + 5 logΔ + 35 log r(t - 30)

---------------------------------------------------------------------

軌道要素はM.P.E.C. 2013-O31に掲載されたものです。
星図はステラナビゲータ Ver.11 (アストロアーツ) で作成したものです。
光度グラフはComet for Windowsで作成したものです。

---------------------------------------------------------------------

Copyright(C) Seiichi Yoshida (comet@aerith.net). All rights reserved.